This demonstration page uses our WeatherBlox Daily Observations layout. Learn more.

Left ArrowRight Arrow

Hourly Observations for March 16, 2021

Temp ( °F °C ) Dew Point ( °F °C ) Humidity (%) Winds ( mph kmh ) Pressure ( in mb ) Visibility ( mi km ) Precip ( " mm )
12:43 am 00:43 Cloudy with Mist and Fog 39 3.9 37 2.8 93 93 ENE 3 6 29.93 1014 3 4 N/A
12:54 am 00:54 Cloudy with Mist and Fog 39 3.9 37 2.8 93 93 E 5 7 29.91 1013 3 5 N/A
1:05 am 01:05 Cloudy with Mist and Fog 39 3.9 37 2.8 93 93 ENE 5 7 29.93 1014 3 4 N/A
1:54 am 01:54 Cloudy with Mist and Fog 39 3.9 37 2.8 93 93 ENE 7 11 29.91 1013 3 4 N/A
2:03 am 02:03 Cloudy with Mist and Fog 39 3.9 37 2.8 93 93 ENE 6 9 29.93 1014 3 5 N/A
2:54 am 02:54 Cloudy with Mist and Fog 39 3.9 37 2.8 93 93 E 6 9 29.90 1013 3 5 N/A
3:54 am 03:54 Cloudy with Mist and Fog 39 3.9 37 2.8 93 93 ESE 7 11 29.89 1012 3 5 N/A
4:17 am 04:17 Cloudy with Mist and Fog 39 3.9 37 2.8 93 93 ESE 6 9 29.90 1013 2 3 N/A
4:54 am 04:54 Cloudy with Mist and Fog 39 3.9 37 2.8 93 93 E 6 9 29.88 1012 6 10 N/A
5:54 am 05:54 Cloudy with Mist and Fog 39 3.9 37 2.8 93 93 E 6 9 29.88 1012 6 10 N/A
6:54 am 06:54 Cloudy with Mist and Fog 39 3.9 37 2.8 93 93 SE 5 7 29.92 1013 6 10 N/A
7:54 am 07:54 Cloudy with Mist and Fog 40 4.4 37 2.8 89 89 ESE 3 6 29.92 1013 5 8 N/A
8:09 am 08:09 Cloudy with Mist and Fog 40 4.4 37 2.8 89 89 E 6 9 29.94 1014 2 3 N/A
8:54 am 08:54 Cloudy with Mist and Fog 40 4.4 38 3.3 93 93 ESE 7 11 29.92 1013 2 3 N/A
9:54 am 09:54 Cloudy with Mist and Fog 41 5 38 3.3 89 89 ESE 9 15 29.93 1013 2 3 N/A
10:01 am 10:01 Cloudy with Mist and Fog 41 5 39 3.9 93 93 E 8 13 29.94 1014 3 5 N/A
10:54 am 10:54 Cloudy with Mist and Fog 42 5.6 39 3.9 89 89 ESE 8 13 29.93 1014 3 5 N/A
11:47 am 11:47 Cloudy 43 6.1 39 3.9 86 86 SE 10 17 29.95 1014 9 14 N/A
11:54 am 11:54 Cloudy 43 6.1 39 3.9 86 86 SE 8 13 29.93 1014 10 16 N/A
12:54 pm 12:54 Cloudy 44 6.7 40 4.4 85 85 ESE 6 9 29.93 1014 10 16 N/A
1:54 pm 13:54 Cloudy with Mist and Fog 45 7.2 41 5 86 86 SE 6 9 29.93 1014 5 8 N/A
2:54 pm 14:54 Cloudy 45 7.2 41 5 86 86 SSE 8 13 29.91 1013 8 13 N/A
3:54 pm 15:54 Cloudy 46 7.8 42 5.6 86 86 SE 7 11 29.89 1012 10 16 N/A
4:54 pm 16:54 Cloudy 46 7.8 41 5 83 83 SE 6 9 29.90 1012 10 16 N/A
5:04 pm 17:04 Cloudy 46 7.8 41 5 83 83 ESE 6 9 29.91 1013 10 16 N/A
5:21 pm 17:21 Cloudy 46 7.8 42 5.6 86 86 SSE 6 9 29.90 1013 9 14 N/A
5:39 pm 17:39 Cloudy 46 7.8 41 5 83 83 SE 3 6 29.90 1013 8 13 N/A
5:54 pm 17:54 Cloudy 46 7.8 41 5 83 83 N N/A 29.89 1012 8 13 N/A
6:20 pm 18:20 Cloudy 46 7.8 41 5 83 83 ESE 9 15 29.89 1012 10 16 N/A
6:31 pm 18:31 Cloudy 47 8.3 41 5 80 80 E 7 11 29.89 1012 10 16 N/A
6:54 pm 18:54 Mostly Cloudy 46 7.8 41 5 83 83 E 3 6 29.90 1012 10 16 N/A
7:05 pm 19:05 Mostly Cloudy 47 8.3 40 4.4 77 77 ESE 5 7 29.91 1013 10 16 N/A
7:18 pm 19:18 Cloudy 46 7.8 40 4.4 79 79 SE 3 6 29.91 1013 10 16 N/A
7:35 pm 19:35 Cloudy 47 8.3 40 4.4 77 77 ESE 5 7 29.92 1013 10 16 N/A
7:54 pm 19:54 Cloudy 46 7.8 40 4.4 79 79 ESE 6 9 29.92 1013 10 16 N/A
8:21 pm 20:21 Cloudy 46 7.8 40 4.4 79 79 E 5 7 29.94 1014 10 16 N/A
8:50 pm 20:50 Cloudy 45 7 41 5 87 87 N N/A 29.96 1014 10 16 N/A
8:54 pm 20:54 Cloudy 45 7.2 41 5 86 86 E 3 6 29.95 1014 10 16 N/A
9:54 pm 21:54 Cloudy 45 7.2 41 5 86 86 N N/A 29.98 1015 7 11 N/A
10:05 pm 22:05 Cloudy 45 7.2 41 5 86 86 N N/A 29.99 1016 7 11 N/A
10:25 pm 22:25 Cloudy 45 7.2 41 5 86 86 N N/A 30.00 1016 7 11 N/A
10:54 pm 22:54 Cloudy with Mist and Fog 45 7.2 42 5.6 90 90 N 3 6 29.98 1015 3 5 N/A
11:17 pm 23:17 Cloudy with Mist and Fog 44 6.7 42 5.6 93 93 N 5 7 29.99 1015 3 4 N/A
11:31 pm 23:31 Cloudy with Mist and Fog 44 6.7 42 5.6 93 93 NNE 6 9 29.98 1015 3 5 N/A
11:54 pm 23:54 Cloudy with Mist and Fog 44 6.7 42 5.6 93 93 N 3 6 29.96 1015 4 6 N/A

Powered by AerisWeather